Time,TemperatureF,DewpointF,PressureIn,WindDirection,WindDirectionDegrees,WindSpeedMPH,WindSpeedGustMPH,Humidity,HourlyPrecipIn,Conditions,Clouds,dailyrainin,SoftwareType,DateUTC
2013-11-30 00:12:00,18.0,13.0,30.84,WSW,237,0.0,3.0,81,0.00,,,0.05,,2013-11-30 05:12:00,
2013-11-30 00:22:00,18.0,13.0,30.83,SW,217,2.0,7.0,80,0.00,,,0.05,,2013-11-30 05:22:00,
2013-11-30 00:43:00,17.0,12.0,30.83,SSW,205,0.0,2.0,82,0.00,,,0.05,,2013-11-30 05:43:00,
2013-11-30 00:53:00,17.0,13.0,30.82,SSW,205,0.0,1.0,83,0.00,,,0.05,,2013-11-30 05:53:00,
2013-11-30 01:12:00,16.0,12.0,30.82,SSW,205,0.0,1.0,84,0.00,,,0.05,,2013-11-30 06:12:00,
2013-11-30 01:22:00,16.0,12.0,30.82,SSW,205,0.0,0.0,85,0.00,,,0.05,,2013-11-30 06:22:00,
2013-11-30 01:42:00,15.0,12.0,30.82,SSW,205,0.0,0.0,86,0.00,,,0.05,,2013-11-30 06:42:00,
2013-11-30 01:52:00,15.0,12.0,30.82,SSW,205,0.0,1.0,86,0.00,,,0.05,,2013-11-30 06:52:00,
2013-11-30 02:12:00,15.0,12.0,30.82,SSW,206,0.0,2.0,87,0.00,,,0.05,,2013-11-30 07:12:00,
2013-11-30 02:22:00,15.0,12.0,30.82,SSW,206,0.0,0.0,87,0.00,,,0.05,,2013-11-30 07:22:00,
2013-11-30 02:42:00,14.0,11.0,30.82,SSW,206,0.0,0.0,88,0.00,,,0.05,,2013-11-30 07:42:00,
2013-11-30 02:52:00,14.0,11.0,30.83,SSW,206,0.0,0.0,88,0.00,,,0.05,,2013-11-30 07:52:00,
2013-11-30 03:11:00,14.0,11.0,30.82,SSW,206,0.0,3.0,88,0.00,,,0.05,,2013-11-30 08:11:00,
2013-11-30 03:22:00,14.0,11.0,30.82,SSW,206,0.0,3.0,88,0.00,,,0.05,,2013-11-30 08:22:00,
2013-11-30 03:42:00,14.0,11.0,30.81,SSW,206,0.0,1.0,87,0.00,,,0.05,,2013-11-30 08:42:00,
2013-11-30 03:52:00,13.0,10.0,30.81,SSW,206,0.0,1.0,88,0.00,,,0.05,,2013-11-30 08:52:00,
2013-11-30 04:11:00,13.0,10.0,30.80,SSW,206,0.0,0.0,89,0.00,,,0.05,,2013-11-30 09:11:00,
2013-11-30 04:22:00,13.0,10.0,30.80,SSW,206,0.0,2.0,89,0.00,,,0.05,,2013-11-30 09:22:00,
2013-11-30 04:43:00,12.0,9.0,30.80,SSW,206,0.0,2.0,89,0.00,,,0.05,,2013-11-30 09:43:00,
2013-11-30 04:54:00,12.0,9.0,30.79,SSW,206,0.0,0.0,89,0.00,,,0.05,,2013-11-30 09:54:00,
2013-11-30 05:13:00,12.0,9.0,30.79,SSW,206,0.0,1.0,89,0.00,,,0.05,,2013-11-30 10:13:00,
2013-11-30 05:23:00,11.0,8.0,30.78,SSW,204,1.0,4.0,89,0.00,,,0.05,,2013-11-30 10:23:00,
2013-11-30 05:42:00,11.0,8.0,30.78,SSW,199,0.0,4.0,89,0.00,,,0.05,,2013-11-30 10:42:00,
2013-11-30 05:53:00,11.0,8.0,30.78,SSW,199,1.0,3.0,89,0.00,,,0.05,,2013-11-30 10:53:00,
2013-11-30 06:12:00,11.0,8.0,30.77,SSW,199,1.0,3.0,89,0.00,,,0.05,,2013-11-30 11:12:00,
2013-11-30 06:22:00,11.0,8.0,30.77,SSW,199,0.0,3.0,89,0.00,,,0.05,,2013-11-30 11:22:00,
2013-11-30 06:42:00,12.0,9.0,30.76,South,186,2.0,4.0,89,0.00,,,0.05,,2013-11-30 11:42:00,
2013-11-30 06:53:00,12.0,10.0,30.76,SSE,156,3.0,6.0,90,0.00,,,0.05,,2013-11-30 11:53:00,
2013-11-30 07:11:00,12.0,10.0,30.76,SSE,148,2.0,6.0,90,0.00,,,0.05,,2013-11-30 12:11:00,
2013-11-30 07:22:00,12.0,10.0,30.76,SSE,161,2.0,6.0,90,0.00,,,0.05,,2013-11-30 12:22:00,
2013-11-30 07:42:00,13.0,10.0,30.76,SSE,149,1.0,6.0,89,0.00,,,0.05,,2013-11-30 12:42:00,
2013-11-30 07:52:00,13.0,10.0,30.75,SSE,160,3.0,6.0,88,0.00,,,0.05,,2013-11-30 12:52:00,
2013-11-30 08:11:00,13.0,10.0,30.74,SSE,157,3.0,6.0,88,0.00,,,0.05,,2013-11-30 13:11:00,
2013-11-30 08:22:00,14.0,11.0,30.73,SSE,159,3.0,6.0,87,0.00,,,0.05,,2013-11-30 13:22:00,
2013-11-30 08:42:00,14.0,11.0,30.71,SSE,153,4.0,9.0,86,0.00,,,0.05,,2013-11-30 13:42:00,
2013-11-30 08:52:00,15.0,11.0,30.71,SSW,198,3.0,9.0,85,0.00,,,0.05,,2013-11-30 13:52:00,
2013-11-30 09:12:00,17.0,13.0,30.72,SSE,160,0.0,3.0,84,0.00,,,0.05,,2013-11-30 14:12:00,
2013-11-30 09:22:00,18.0,13.0,30.71,SSE,165,1.0,6.0,82,0.00,,,0.05,,2013-11-30 14:22:00,
2013-11-30 09:42:00,19.0,14.0,30.70,SSE,159,4.0,7.0,79,0.00,,,0.05,,2013-11-30 14:42:00,
2013-11-30 09:53:00,21.0,16.0,30.69,SE,145,1.0,6.0,79,0.00,,,0.05,,2013-11-30 14:53:00,
2013-11-30 10:11:00,22.0,15.0,30.68,SE,145,2.0,8.0,75,0.00,,,0.05,,2013-11-30 15:11:00,
2013-11-30 10:22:00,23.0,16.0,30.67,SE,130,2.0,7.0,74,0.00,,,0.05,,2013-11-30 15:22:00,
2013-11-30 10:43:00,24.0,16.0,30.65,SE,140,4.0,10.0,71,0.00,,,0.05,,2013-11-30 15:43:00,
2013-11-30 10:53:00,26.0,17.0,30.65,ESE,119,2.0,12.0,67,0.00,,,0.05,,2013-11-30 15:53:00,
2013-11-30 11:03:00,26.0,17.0,30.65,ESE,119,2.0,12.0,67,0.00,,,0.05,,2013-11-30 16:03:00,
2013-11-30 11:13:00,26.0,17.0,30.65,ESE,119,2.0,12.0,67,0.00,,,0.05,,2013-11-30 16:13:00,
2013-11-30 11:23:00,27.0,17.0,30.62,SSE,157,5.0,14.0,65,0.00,,,0.05,,2013-11-30 16:23:00,
2013-11-30 11:43:00,28.0,16.0,30.60,SSE,164,5.0,13.0,61,0.00,,,0.04,,2013-11-30 16:43:00,
2013-11-30 11:53:00,28.0,15.0,30.59,WSW,237,7.0,14.0,58,0.00,,,0.04,,2013-11-30 16:53:00,
2013-11-30 12:11:00,28.0,16.0,30.58,SSE,149,6.0,12.0,59,0.00,,,0.04,,2013-11-30 17:11:00,
2013-11-30 12:22:00,28.0,16.0,30.58,SSE,149,6.0,12.0,59,0.00,,,0.04,,2013-11-30 17:22:00,
2013-11-30 12:42:00,28.0,17.0,30.55,SE,141,3.0,9.0,62,0.00,,,0.02,,2013-11-30 17:42:00,
2013-11-30 12:53:00,29.0,17.0,30.55,SSE,165,6.0,12.0,60,0.00,,,0.02,,2013-11-30 17:53:00,
2013-11-30 13:12:00,30.0,17.0,30.53,SE,146,5.0,11.0,58,0.00,,,0.02,,2013-11-30 18:12:00,
2013-11-30 13:22:00,30.0,17.0,30.52,SSE,150,6.0,14.0,57,0.00,,,0.02,,2013-11-30 18:22:00,
2013-11-30 13:42:00,30.0,17.0,30.51,SSE,154,5.0,11.0,58,0.00,,,0.01,,2013-11-30 18:42:00,
2013-11-30 13:52:00,31.0,18.0,30.50,SSE,159,7.0,12.0,57,0.00,,,0.01,,2013-11-30 18:52:00,
2013-11-30 14:11:00,31.0,19.0,30.50,South,171,2.0,10.0,60,0.00,,,0.01,,2013-11-30 19:11:00,
2013-11-30 14:21:00,31.0,19.0,30.48,SSE,158,4.0,8.0,60,0.00,,,0.01,,2013-11-30 19:21:00,
2013-11-30 14:42:00,31.0,19.0,30.48,SSE,156,4.0,9.0,60,0.00,,,0.00,,2013-11-30 19:42:00,
2013-11-30 14:52:00,31.0,19.0,30.47,SE,136,4.0,9.0,61,0.00,,,0.00,,2013-11-30 19:52:00,
2013-11-30 15:11:00,31.0,20.0,30.46,SSE,163,2.0,10.0,62,0.00,,,0.00,,2013-11-30 20:11:00,
2013-11-30 15:22:00,31.0,20.0,30.45,SSE,153,2.0,6.0,62,0.00,,,0.00,,2013-11-30 20:22:00,
2013-11-30 15:42:00,31.0,20.0,30.45,SE,141,3.0,10.0,62,0.00,,,0.00,,2013-11-30 20:42:00,
2013-11-30 15:52:00,31.0,20.0,30.45,SSE,165,5.0,8.0,63,0.00,,,0.00,,2013-11-30 20:52:00,
2013-11-30 16:11:00,31.0,20.0,30.43,SSE,157,4.0,11.0,63,0.00,,,0.00,,2013-11-30 21:11:00,
2013-11-30 16:22:00,31.0,21.0,30.43,SSE,148,4.0,8.0,65,0.00,,,0.00,,2013-11-30 21:22:00,
2013-11-30 16:43:00,31.0,20.0,30.42,SSE,155,6.0,10.0,64,0.00,,,0.00,,2013-11-30 21:43:00,
2013-11-30 16:53:00,31.0,21.0,30.40,South,169,6.0,11.0,66,0.00,,,0.00,,2013-11-30 21:53:00,
2013-11-30 17:13:00,31.0,21.0,30.40,South,169,3.0,9.0,67,0.00,,,0.00,,2013-11-30 22:13:00,
2013-11-30 17:23:00,31.0,21.0,30.39,SSE,150,4.0,8.0,67,0.00,,,0.00,,2013-11-30 22:23:00,
2013-11-30 17:42:00,31.0,21.0,30.39,SE,138,3.0,10.0,67,0.00,,,0.00,,2013-11-30 22:42:00,
2013-11-30 17:52:00,31.0,22.0,30.38,SSE,162,3.0,9.0,68,0.00,,,0.00,,2013-11-30 22:52:00,
2013-11-30 18:12:00,31.0,22.0,30.38,SSE,157,4.0,8.0,69,0.00,,,0.00,,2013-11-30 23:12:00,
2013-11-30 18:22:00,31.0,22.0,30.37,SSE,150,4.0,8.0,70,0.00,,,0.00,,2013-11-30 23:22:00,
2013-11-30 18:42:00,31.0,22.0,30.37,South,171,4.0,9.0,70,0.00,,,0.00,,2013-11-30 23:42:00,
2013-11-30 18:53:00,31.0,22.0,30.36,SE,140,4.0,9.0,70,0.00,,,0.00,,2013-11-30 23:53:00,
2013-11-30 19:11:00,31.0,23.0,30.36,SSE,162,4.0,9.0,71,0.00,,,0.00,,2013-12-01 00:11:00,
2013-11-30 19:22:00,31.0,23.0,30.36,SSE,149,3.0,9.0,71,0.00,,,0.00,,2013-12-01 00:22:00,
2013-11-30 19:42:00,31.0,23.0,30.35,SSE,158,3.0,9.0,72,0.00,,,0.00,,2013-12-01 00:42:00,
2013-11-30 19:52:00,31.0,23.0,30.36,South,185,4.0,8.0,72,0.00,,,0.00,,2013-12-01 00:52:00,
2013-11-30 20:12:00,31.0,23.0,30.35,SSE,167,3.0,14.0,71,0.00,,,0.00,,2013-12-01 01:12:00,
2013-11-30 20:21:00,31.0,22.0,30.35,SSE,167,4.0,12.0,70,0.00,,,0.00,,2013-12-01 01:21:00,
2013-11-30 20:42:00,31.0,22.0,30.34,SSE,163,4.0,11.0,70,0.00,,,0.00,,2013-12-01 01:42:00,
2013-11-30 20:52:00,31.0,22.0,30.33,SSE,163,4.0,10.0,70,0.00,,,0.00,,2013-12-01 01:52:00,
2013-11-30 21:11:00,31.0,22.0,30.33,South,181,4.0,10.0,70,0.00,,,0.00,,2013-12-01 02:11:00,
2013-11-30 21:22:00,31.0,23.0,30.33,South,169,2.0,6.0,71,0.00,,,0.00,,2013-12-01 02:22:00,
2013-11-30 21:42:00,31.0,22.0,30.34,SSW,210,2.0,11.0,70,0.00,,,0.00,,2013-12-01 02:42:00,
2013-11-30 21:52:00,31.0,22.0,30.33,SSE,154,3.0,9.0,69,0.00,,,0.00,,2013-12-01 02:52:00,
2013-11-30 22:11:00,31.0,22.0,30.32,South,178,2.0,9.0,70,0.00,,,0.00,,2013-12-01 03:11:00,
2013-11-30 22:22:00,31.0,22.0,30.32,SW,215,2.0,9.0,70,0.00,,,0.00,,2013-12-01 03:22:00,
2013-11-30 22:44:00,31.0,22.0,30.32,SSE,147,3.0,9.0,69,0.00,,,0.00,,2013-12-01 03:44:00,
2013-11-30 22:53:00,31.0,22.0,30.32,SSE,150,3.0,10.0,70,0.00,,,0.00,,2013-12-01 03:53:00,
2013-11-30 23:03:00,-999.0,-99.9,30.31,South,171,2.0,8.0,-999,0.00,,,0.00,,2013-12-01 04:03:00,
2013-11-30 23:13:00,31.0,22.0,30.31,South,171,2.0,8.0,70,0.00,,,0.00,,2013-12-01 04:13:00,
2013-11-30 23:23:00,31.0,22.0,30.31,South,179,3.0,12.0,70,0.00,,,0.00,,2013-12-01 04:23:00,
2013-11-30 23:42:00,31.0,23.0,30.31,SW,214,3.0,8.0,71,0.00,,,0.00,,2013-12-01 04:42:00,
2013-11-30 23:52:00,31.0,23.0,30.31,South,172,3.0,7.0,71,0.00,,,0.00,,2013-12-01 04:52:00,